SCP
1 2 1 1 1 1 2 1 0 -2 -1 -0 -0 -1 -1 -1 -1 -1 -1 -1 -1 -0 -0 -0 -0 -0 -0 -0 -0 -0 -0 -0 -0 -0 -0 -0 -0 -0 -0 -0 -0 -0 -0
1 2 1 1 2 2 1 2 1 -1 -0 -1 1 -0 -1 -1 -1 -1 -1 -0 -0 -0 -0 -0 -0 -0 -0 -0 -0 -0 -0 -0 -0 -0 -0 -0 -0 -0 -0 -0 -0 -0 -0
1 2 3 2 2 1 1 1 1 1 0 -0 -0 -0 -1 -1 -1 -0 -0 -0 -0 -0 -0 -0 -0 -0 -0 -0 -0 -0 -0 -0 -0 -0 -0 0 -0 -0 -0 -0 -0 -0 -0
1 2 2 1 1 1 2 2 1 1 0 1 1 0 -0 -0 -0 -0 -1 -0 -0 -0 -0 -0 -0 -0 -0 -0 -0 -0 -0 -0 -0 0 0 0 0 -0 -0 -0 -0 -0 -0
1 2 2 1 1 1 2 2 2 1 2 0 1 0 0 -0 -0 -0 -0 -0 -0 -0 -0 -0 -0 -0 -0 -0 -0 -0 -0 -0 -0 0 0 0 0 -0 -0 -0 -0 -0 -0
1 1 1 1 2 2 2 2 2 2 1 1 1 0 0 -0 -0 -0 -0 -0 -0 -0 -0 -0 -0 -0 -0 -0 0 0 0 0 0 -0 0 0 0 -0 -0 -0 -0 -0 -0
0 0 1 1 1 1 1 1 1 -0 1 1 1 0 -0 -0 -0 -0 -0 -0 -0 -0 -0 -0 0 -0 0 0 0 0 -0 0 -0 0 0 -0 0 -0 -0 -0 -0 -0 -0
0 0 0 1 0 1 1 1 1 0 0 1 0 0 0 -0 0 -0 -0 -0 -0 -0 -0 0 -0 -0 -0 0 0 0 0 0 -0 0 0 -0 -0 -0 -0 -0 -0 -0 -0
0 0 0 1 1 1 1 1 0 1 1 1 1 0 0 0 0 -0 -0 -0 -0 -0 -0 -0 -0 -0 0 0 0 0 -0 -0 -0 -0 -0 -0 -0 -0 -0 -0 -0 -0 -0
0 0 0 0 0 1 1 1 1 0 1 1 1 0 1 0 0 -0 -0 -0 -0 -0 -0 -0 0 0 0 0 0 0 0 0 0 -0 -0 -0 -0 -0 -0 -0 -0 -0 -0
0 0 0 0 0 0 0 1 1 0 0 0 1 1 1 0 0 0 0 -0 -0 0 0 0 0 0 0 0 0 0 0 -0 -0 -0 -0 0 0 -0 -0 -0 -0 -0 -0
-0 -0 0 0 0 0 0 0 0 0 0 0 1 1 1 0 0 0 0 -0 -0 0 0 0 0 0 0 0 0 0 0 -0 -0 -0 -0 0 0 0 0 0 0 0 0
0 0 0 0 0 0 0 0 0 0 0 0 1 0 0 0 0 0 0 0 0 0 0 0 0 0 0 0 0 0 0 -0 -0 -0 -0 0 0 0 0 0 0 0 0
0 0 0 0 -0 0 0 0 0 0 0 0 0 0 0 0 0 0 0 0 0 0 0 0 0 0 0 0 0 0 0 -0 0 -0 -0 0 0 0 0 0 0 0 0
0 0 0 -0 0 -0 0 0 0 0 0 0 0 0 0 0 0 0 0 0 0 0 0 0 0 0 0 0 0 0 0 0 0 0 -0 0 0 0 0 0 0 0 0
0 0 0 0 0 -0 0 0 0 0 0 0 0 0 0 0 0 0 0 0 0 0 0 0 0 0 0 0 0 0 0 0 0 0 0 0 0 0 0 0 0 0 0
0 0 -0 0 0 0 0 0 0 0 0 0 0 0 0 0 0 0 0 0 0 0 0 0 0 0 0 0 0 0 0 0 0 0 0 0 0 0 0 0 0 0 0
0 0 0 -0 -0 0 0 0 0 0 0 0 0 0 0 0 0 0 0 0 0 0 0 0 0 0 0 0 0 0 0 0 0 0 0 0 0 0 0 0 0 0 0
0 0 0 -0 -0 -0 0 0 0 0 0 0 0 0 0 0 0 0 0 0 0 0 0 0 0 0 0 0 0 0 0 0 0 0 0 0 0 0 0 0 0 0 0
0 0 0 0 -0 0 0 0 0 0 0 0 0 0 0 0 0 0 0 0 0 0 0 0 0 0 0 0 0 0 0 0 0 0 0 0 0 0 0 0 0 0 0
0 0 0 0 0 0 0 0 0 0 0 0 0 0 0 0 0 0 0 0 0 0 0 0 0 0 0 0 0 0 0 0 0 0 0 0 0 0 0 0 0 0 0
-0 0 0 0 0 0 0 0 0 0 0 0 0 0 0 0 0 0 0 0 0 0 0 0 0 0 0 0 0 0 0 0 0 0 0 0 0 0 0 0 0 0 0
-0 -0 0 0 0 0 0 0 0 0 0 0 0 0 0 0 0 0 0 0 0 0 0 0 0 0 0 0 0 0 0 0 0 0 0 0 0 0 0 0 0 0 0
-0 -0 -0 -0 -0 -0 0 0 0 0 0 0 0 0 0 0 0 0 0 0 0 0 0 0 0 0 0 0 0 0 0 0 0 0 0 0 0 0 0 0 0 0 0
-0 -0 -0 -0 -0 -0 -0 -0 -0 0 0 0 0 0 -0 -0 0 0 0 0 0 0 0 0 0 0 0 0 0 0 0 0 0 0 0 0 0 0 0 0 0 0 0
-0 -0 -0 -0 -0 -0 0 0 0 0 0 0 -0 -0 -0 -0 -0 0 -0 0 0 0 0 0 0 0 0 0 0 0 0 0 0 0 0 0 0 0 0 0 0 0 0
Wind_Speed_500mb
59 69 67 63 62 57 50 43 54 61 61 58 59 57 53 44 44 53 56 54 51 46 42 40 41 45 50 51 50 48 46 45 43 44 44 43 43 43 42 41 43 45 42
67 71 72 64 66 60 60 63 62 61 67 67 63 58 49 45 46 55 57 56 53 51 48 48 50 51 53 53 52 50 48 44 42 43 43 44 46 47 48 49 49 48 49
60 73 65 65 65 66 62 61 60 60 63 66 62 54 48 48 51 59 59 56 57 56 53 53 53 54 55 55 55 53 51 46 44 45 45 48 46 49 49 50 49 48 45
55 67 78 71 67 74 70 65 56 62 61 58 59 52 48 48 58 63 62 61 61 57 54 55 57 57 56 57 53 53 49 47 43 43 45 47 47 44 45 47 48 46 46
47 59 68 72 71 71 69 68 62 61 62 55 52 50 50 54 61 65 65 63 61 59 57 55 54 52 52 51 50 51 51 46 43 43 45 46 47 44 42 41 39 40 40
43 66 79 71 71 69 75 74 67 64 60 54 48 49 51 58 66 68 65 64 64 61 57 54 54 52 49 46 45 47 46 44 42 41 42 43 43 41 39 38 35 35 34
42 60 67 70 70 73 78 79 71 63 62 55 52 44 51 64 71 70 69 68 64 60 53 52 47 47 46 44 42 40 38 41 39 39 39 39 40 38 38 38 38 37 35
34 47 54 70 74 74 76 77 64 60 54 59 52 49 60 72 73 72 70 66 62 57 52 46 42 44 44 41 38 35 35 34 35 35 34 35 35 37 38 38 39 38 36
38 47 47 57 73 71 74 75 70 75 72 65 62 51 65 76 76 71 70 66 62 54 49 44 45 46 45 38 33 31 30 30 31 32 31 32 31 34 36 36 36 36 36
34 48 50 57 71 82 75 69 71 83 83 72 61 53 68 78 74 71 70 67 62 54 46 42 41 42 38 33 32 27 26 28 26 28 28 28 28 29 32 33 35 36 35
32 42 46 59 68 87 76 70 73 91 84 75 72 57 80 79 76 71 72 66 60 54 46 39 38 39 34 29 25 22 22 22 22 24 22 22 24 27 29 31 33 34 33
25 27 34 51 64 72 78 75 88 94 89 79 67 69 81 82 78 73 71 64 58 50 42 36 34 32 27 28 25 19 17 18 18 20 19 19 20 24 26 28 28 28 30
30 37 43 48 43 55 63 76 103 98 91 86 73 77 84 86 82 77 74 66 57 49 45 39 33 29 26 22 19 18 16 16 15 17 17 16 18 21 23 25 24 23 25
26 30 25 29 58 85 81 92 115 107 92 80 82 77 84 90 84 79 73 64 55 50 44 38 31 29 27 22 15 16 17 13 11 13 14 12 14 15 17 19 20 18 19
28 22 21 31 38 54 70 118 125 110 96 93 90 81 90 90 86 79 70 62 55 48 41 38 30 29 26 17 14 14 14 10 10 10 9 9 11 10 11 14 16 14 13
21 26 19 15 5 64 64 108 111 101 94 92 95 90 88 89 83 75 70 62 53 47 42 35 29 27 23 16 15 15 12 9 9 8 7 7 9 8 6 11 12 12 13
14 19 11 19 24 64 69 97 87 92 86 87 88 86 79 77 81 77 66 57 38 49 44 36 31 27 24 20 17 16 13 12 9 8 8 7 6 5 3 7 5 7 9
19 20 21 24 29 46 68 82 76 73 81 80 87 77 69 76 77 73 71 62 62 54 47 37 35 27 25 20 20 19 17 11 7 10 11 8 5 4 2 3 1 2 6
17 26 28 29 35 46 62 74 88 89 86 79 74 74 79 71 71 68 66 58 54 54 48 41 34 26 27 24 23 22 19 13 13 11 11 9 7 7 6 5 6 4 6
19 27 32 36 44 56 64 74 73 70 67 74 83 88 85 78 75 66 60 56 55 53 49 42 31 27 27 25 27 25 23 21 19 15 14 16 15 14 13 13 12 12 10
19 32 31 48 59 64 71 72 69 67 74 77 78 73 85 61 60 58 56 54 50 53 49 43 35 36 38 36 30 32 29 30 28 28 26 25 26 24 22 21 20 20 18
27 26 23 46 70 63 70 74 76 71 73 69 70 78 79 74 59 58 54 52 55 53 50 46 43 45 43 41 40 37 29 39 41 39 39 38 34 33 32 29 29 26 23
28 26 34 35 63 60 72 82 86 76 66 70 68 63 68 70 64 66 64 55 53 50 50 50 52 51 49 48 46 40 22 30 32 48 50 50 45 43 39 38 38 35 34
37 35 40 47 70 77 76 74 84 86 81 79 78 70 71 66 69 69 60 52 52 51 52 58 59 57 53 56 53 57 59 40 27 21 40 48 48 48 46 45 45 43 43
39 42 44 51 60 62 59 70 84 81 81 81 76 80 80 67 69 67 63 61 54 53 56 62 64 67 65 63 62 62 64 68 63 48 27 33 40 43 48 50 51 48 45
46 43 46 48 56 62 63 68 82 86 82 79 78 86 90 86 81 69 66 69 63 62 58 58 60 64 67 69 69 69 72 74 69 65 56 57 46 36 36 42 44 42 36
Wind_Direction_500mb
176 178 181 174 176 181 199 192 174 166 168 174 169 164 162 158 155 154 151 148 145 143 140 135 128 124 117 112 107 104 102 101 102 103 101 98 95 93 90 87 84 80 84
170 176 183 177 175 175 182 179 170 163 165 168 167 166 167 169 162 157 153 151 148 147 142 136 130 124 115 112 109 106 100 99 100 99 100 98 92 90 91 90 85 83 83
182 180 183 186 182 178 177 169 165 162 160 167 172 173 173 170 164 159 155 153 149 145 140 135 131 124 117 110 105 100 97 96 95 96 97 95 93 93 89 90 96 93 90
191 190 188 194 187 180 172 169 168 169 164 166 173 175 177 171 165 160 159 156 151 144 139 135 130 122 116 109 100 95 93 92 91 92 92 92 91 89 90 93 93 94 90
201 195 193 189 187 184 177 174 169 167 168 163 177 177 176 169 164 162 160 155 150 146 142 138 134 124 117 111 102 96 92 89 90 91 90 91 92 91 93 93 93 95 95
197 194 192 190 192 191 187 177 174 170 169 175 183 175 172 167 164 162 159 155 149 145 145 137 133 126 121 111 105 99 91 89 91 90 91 92 90 92 92 91 88 81 79
210 199 195 195 197 198 187 183 176 177 174 178 177 183 172 169 165 162 158 154 150 147 144 137 134 128 126 115 107 97 88 87 87 88 88 89 89 88 87 85 83 79 75
208 212 200 200 205 188 180 183 190 179 178 183 179 182 176 172 168 165 161 156 149 149 146 138 137 137 129 120 109 100 95 86 87 88 88 88 85 85 83 81 80 78 77
234 214 211 200 196 191 184 194 193 191 189 175 175 198 176 172 170 167 161 156 153 153 147 140 136 134 133 127 115 103 91 84 82 83 84 87 86 86 84 81 79 76 74
236 231 227 208 212 201 194 196 202 204 183 177 174 180 179 174 171 167 162 158 156 154 151 139 134 134 133 129 116 103 94 87 83 86 84 87 87 83 77 74 71 69 70
221 226 218 215 213 218 208 208 204 195 191 177 176 197 180 173 172 166 163 160 159 159 156 149 146 140 140 135 116 103 94 90 86 82 81 84 93 92 83 72 66 63 59
230 216 214 213 217 217 219 202 198 184 185 182 183 188 178 174 173 167 163 163 162 160 159 160 157 150 149 145 127 115 103 95 87 81 82 78 96 97 85 74 64 58 53
230 231 231 219 227 222 221 224 192 187 183 178 176 188 179 174 172 167 162 161 161 162 159 162 155 153 153 142 133 133 121 109 91 82 87 83 92 102 86 68 58 52 53
221 203 223 235 229 231 220 203 190 183 188 185 179 186 180 175 172 169 167 166 169 170 168 166 165 156 152 144 133 127 117 104 84 84 93 82 85 85 83 67 62 59 47
214 227 261 268 277 275 198 180 179 178 175 177 180 185 184 175 172 172 169 171 176 176 177 171 169 169 159 151 145 140 128 121 104 101 102 104 83 83 79 47 51 58 43
233 237 238 229 144 153 135 156 166 174 176 182 182 186 183 177 172 170 171 176 179 184 183 176 177 175 164 162 164 154 149 138 129 125 123 128 114 109 76 32 21 23 18
240 218 205 175 137 177 164 163 161 163 171 177 185 187 184 178 174 174 176 179 189 191 185 181 176 185 193 176 174 171 160 150 140 136 139 145 139 136 73 11 16 9 357
237 215 189 173 177 159 176 178 185 180 174 180 185 188 183 183 180 183 185 180 198 191 192 189 191 195 191 192 187 180 170 171 168 147 162 174 180 191 208 329 255 14 355
232 205 209 184 179 166 170 171 174 174 174 187 182 186 186 181 192 192 191 185 190 193 196 197 198 206 202 196 191 188 188 193 190 190 191 197 221 232 241 262 245 296 332
218 216 208 201 190 184 175 171 166 172 182 185 187 184 179 186 196 194 198 192 199 197 201 200 208 209 210 213 204 199 204 210 211 214 213 218 233 244 253 264 261 266 292
223 218 223 201 187 181 177 170 169 179 184 186 187 183 178 187 191 196 199 201 205 205 208 211 208 212 208 210 212 217 220 227 227 228 233 236 242 243 246 254 264 266 274
207 207 211 205 183 183 175 174 174 173 177 175 176 184 192 190 202 198 206 207 212 211 215 217 221 218 215 218 219 226 232 237 238 239 241 245 248 247 249 254 258 263 267
201 200 196 189 182 187 183 181 180 180 183 180 182 189 191 196 201 203 215 216 217 221 224 226 230 230 225 225 231 226 217 232 237 241 244 245 248 249 252 254 257 259 260
205 203 194 196 191 189 190 192 185 188 193 199 197 199 198 202 209 211 218 223 224 229 235 237 240 238 234 236 236 239 238 249 244 248 248 244 246 249 252 255 258 259 258
197 202 205 201 203 204 205 207 191 196 201 207 203 208 204 213 215 222 226 226 231 235 242 244 241 239 240 240 242 247 246 245 248 245 248 260 252 250 248 250 254 256 259
203 203 203 199 199 203 208 205 203 204 209 215 220 212 212 219 221 227 232 232 236 242 244 250 252 247 247 245 248 251 253 249 246 249 259 258 261 253 254 255 254 257 257
Wind_Speed_850mb
59 69 67 63 62 57 50 43 54 61 61 58 59 57 53 44 44 53 56 54 51 46 42 40 41 45 50 51 50 48 46 45 43 44 44 43 43 43 42 41 43 45 42
67 71 72 64 66 60 60 63 62 61 67 67 63 58 49 45 46 55 57 56 53 51 48 48 50 51 53 53 52 50 48 44 42 43 43 44 46 47 48 49 49 48 49
60 73 65 65 65 66 62 61 60 60 63 66 62 54 48 48 51 59 59 56 57 56 53 53 53 54 55 55 55 53 51 46 44 45 45 48 46 49 49 50 49 48 45
55 67 78 71 67 74 70 65 56 62 61 58 59 52 48 48 58 63 62 61 61 57 54 55 57 57 56 57 53 53 49 47 43 43 45 47 47 44 45 47 48 46 46
47 59 68 72 71 71 69 68 62 61 62 55 52 50 50 54 61 65 65 63 61 59 57 55 54 52 52 51 50 51 51 46 43 43 45 46 47 44 42 41 39 40 40
43 66 79 71 71 69 75 74 67 64 60 54 48 49 51 58 66 68 65 64 64 61 57 54 54 52 49 46 45 47 46 44 42 41 42 43 43 41 39 38 35 35 34
42 60 67 70 70 73 78 79 71 63 62 55 52 44 51 64 71 70 69 68 64 60 53 52 47 47 46 44 42 40 38 41 39 39 39 39 40 38 38 38 38 37 35
34 47 54 70 74 74 76 77 64 60 54 59 52 49 60 72 73 72 70 66 62 57 52 46 42 44 44 41 38 35 35 34 35 35 34 35 35 37 38 38 39 38 36
38 47 47 57 73 71 74 75 70 75 72 65 62 51 65 76 76 71 70 66 62 54 49 44 45 46 45 38 33 31 30 30 31 32 31 32 31 34 36 36 36 36 36
34 48 50 57 71 82 75 69 71 83 83 72 61 53 68 78 74 71 70 67 62 54 46 42 41 42 38 33 32 27 26 28 26 28 28 28 28 29 32 33 35 36 35
32 42 46 59 68 87 76 70 73 91 84 75 72 57 80 79 76 71 72 66 60 54 46 39 38 39 34 29 25 22 22 22 22 24 22 22 24 27 29 31 33 34 33
25 27 34 51 64 72 78 75 88 94 89 79 67 69 81 82 78 73 71 64 58 50 42 36 34 32 27 28 25 19 17 18 18 20 19 19 20 24 26 28 28 28 30
30 37 43 48 43 55 63 76 103 98 91 86 73 77 84 86 82 77 74 66 57 49 45 39 33 29 26 22 19 18 16 16 15 17 17 16 18 21 23 25 24 23 25
26 30 25 29 58 85 81 92 115 107 92 80 82 77 84 90 84 79 73 64 55 50 44 38 31 29 27 22 15 16 17 13 11 13 14 12 14 15 17 19 20 18 19
28 22 21 31 38 54 70 118 125 110 96 93 90 81 90 90 86 79 70 62 55 48 41 38 30 29 26 17 14 14 14 10 10 10 9 9 11 10 11 14 16 14 13
21 26 19 15 5 64 64 108 111 101 94 92 95 90 88 89 83 75 70 62 53 47 42 35 29 27 23 16 15 15 12 9 9 8 7 7 9 8 6 11 12 12 13
14 19 11 19 24 64 69 97 87 92 86 87 88 86 79 77 81 77 66 57 38 49 44 36 31 27 24 20 17 16 13 12 9 8 8 7 6 5 3 7 5 7 9
19 20 21 24 29 46 68 82 76 73 81 80 87 77 69 76 77 73 71 62 62 54 47 37 35 27 25 20 20 19 17 11 7 10 11 8 5 4 2 3 1 2 6
17 26 28 29 35 46 62 74 88 89 86 79 74 74 79 71 71 68 66 58 54 54 48 41 34 26 27 24 23 22 19 13 13 11 11 9 7 7 6 5 6 4 6
19 27 32 36 44 56 64 74 73 70 67 74 83 88 85 78 75 66 60 56 55 53 49 42 31 27 27 25 27 25 23 21 19 15 14 16 15 14 13 13 12 12 10
19 32 31 48 59 64 71 72 69 67 74 77 78 73 85 61 60 58 56 54 50 53 49 43 35 36 38 36 30 32 29 30 28 28 26 25 26 24 22 21 20 20 18
27 26 23 46 70 63 70 74 76 71 73 69 70 78 79 74 59 58 54 52 55 53 50 46 43 45 43 41 40 37 29 39 41 39 39 38 34 33 32 29 29 26 23
28 26 34 35 63 60 72 82 86 76 66 70 68 63 68 70 64 66 64 55 53 50 50 50 52 51 49 48 46 40 22 30 32 48 50 50 45 43 39 38 38 35 34
37 35 40 47 70 77 76 74 84 86 81 79 78 70 71 66 69 69 60 52 52 51 52 58 59 57 53 56 53 57 59 40 27 21 40 48 48 48 46 45 45 43 43
39 42 44 51 60 62 59 70 84 81 81 81 76 80 80 67 69 67 63 61 54 53 56 62 64 67 65 63 62 62 64 68 63 48 27 33 40 43 48 50 51 48 45
46 43 46 48 56 62 63 68 82 86 82 79 78 86 90 86 81 69 66 69 63 62 58 58 60 64 67 69 69 69 72 74 69 65 56 57 46 36 36 42 44 42 36
Wind_Direction_850mb
176 178 181 174 176 181 199 192 174 166 168 174 169 164 162 158 155 154 151 148 145 143 140 135 128 124 117 112 107 104 102 101 102 103 101 98 95 93 90 87 84 80 84
170 176 183 177 175 175 182 179 170 163 165 168 167 166 167 169 162 157 153 151 148 147 142 136 130 124 115 112 109 106 100 99 100 99 100 98 92 90 91 90 85 83 83
182 180 183 186 182 178 177 169 165 162 160 167 172 173 173 170 164 159 155 153 149 145 140 135 131 124 117 110 105 100 97 96 95 96 97 95 93 93 89 90 96 93 90
191 190 188 194 187 180 172 169 168 169 164 166 173 175 177 171 165 160 159 156 151 144 139 135 130 122 116 109 100 95 93 92 91 92 92 92 91 89 90 93 93 94 90
201 195 193 189 187 184 177 174 169 167 168 163 177 177 176 169 164 162 160 155 150 146 142 138 134 124 117 111 102 96 92 89 90 91 90 91 92 91 93 93 93 95 95
197 194 192 190 192 191 187 177 174 170 169 175 183 175 172 167 164 162 159 155 149 145 145 137 133 126 121 111 105 99 91 89 91 90 91 92 90 92 92 91 88 81 79
210 199 195 195 197 198 187 183 176 177 174 178 177 183 172 169 165 162 158 154 150 147 144 137 134 128 126 115 107 97 88 87 87 88 88 89 89 88 87 85 83 79 75
208 212 200 200 205 188 180 183 190 179 178 183 179 182 176 172 168 165 161 156 149 149 146 138 137 137 129 120 109 100 95 86 87 88 88 88 85 85 83 81 80 78 77
234 214 211 200 196 191 184 194 193 191 189 175 175 198 176 172 170 167 161 156 153 153 147 140 136 134 133 127 115 103 91 84 82 83 84 87 86 86 84 81 79 76 74
236 231 227 208 212 201 194 196 202 204 183 177 174 180 179 174 171 167 162 158 156 154 151 139 134 134 133 129 116 103 94 87 83 86 84 87 87 83 77 74 71 69 70
221 226 218 215 213 218 208 208 204 195 191 177 176 197 180 173 172 166 163 160 159 159 156 149 146 140 140 135 116 103 94 90 86 82 81 84 93 92 83 72 66 63 59
230 216 214 213 217 217 219 202 198 184 185 182 183 188 178 174 173 167 163 163 162 160 159 160 157 150 149 145 127 115 103 95 87 81 82 78 96 97 85 74 64 58 53
230 231 231 219 227 222 221 224 192 187 183 178 176 188 179 174 172 167 162 161 161 162 159 162 155 153 153 142 133 133 121 109 91 82 87 83 92 102 86 68 58 52 53
221 203 223 235 229 231 220 203 190 183 188 185 179 186 180 175 172 169 167 166 169 170 168 166 165 156 152 144 133 127 117 104 84 84 93 82 85 85 83 67 62 59 47
214 227 261 268 277 275 198 180 179 178 175 177 180 185 184 175 172 172 169 171 176 176 177 171 169 169 159 151 145 140 128 121 104 101 102 104 83 83 79 47 51 58 43
233 237 238 229 144 153 135 156 166 174 176 182 182 186 183 177 172 170 171 176 179 184 183 176 177 175 164 162 164 154 149 138 129 125 123 128 114 109 76 32 21 23 18
240 218 205 175 137 177 164 163 161 163 171 177 185 187 184 178 174 174 176 179 189 191 185 181 176 185 193 176 174 171 160 150 140 136 139 145 139 136 73 11 16 9 357
237 215 189 173 177 159 176 178 185 180 174 180 185 188 183 183 180 183 185 180 198 191 192 189 191 195 191 192 187 180 170 171 168 147 162 174 180 191 208 329 255 14 355
232 205 209 184 179 166 170 171 174 174 174 187 182 186 186 181 192 192 191 185 190 193 196 197 198 206 202 196 191 188 188 193 190 190 191 197 221 232 241 262 245 296 332
218 216 208 201 190 184 175 171 166 172 182 185 187 184 179 186 196 194 198 192 199 197 201 200 208 209 210 213 204 199 204 210 211 214 213 218 233 244 253 264 261 266 292
223 218 223 201 187 181 177 170 169 179 184 186 187 183 178 187 191 196 199 201 205 205 208 211 208 212 208 210 212 217 220 227 227 228 233 236 242 243 246 254 264 266 274
207 207 211 205 183 183 175 174 174 173 177 175 176 184 192 190 202 198 206 207 212 211 215 217 221 218 215 218 219 226 232 237 238 239 241 245 248 247 249 254 258 263 267
201 200 196 189 182 187 183 181 180 180 183 180 182 189 191 196 201 203 215 216 217 221 224 226 230 230 225 225 231 226 217 232 237 241 244 245 248 249 252 254 257 259 260
205 203 194 196 191 189 190 192 185 188 193 199 197 199 198 202 209 211 218 223 224 229 235 237 240 238 234 236 236 239 238 249 244 248 248 244 246 249 252 255 258 259 258
197 202 205 201 203 204 205 207 191 196 201 207 203 208 204 213 215 222 226 226 231 235 242 244 241 239 240 240 242 247 246 245 248 245 248 260 252 250 248 250 254 256 259
203 203 203 199 199 203 208 205 203 204 209 215 220 212 212 219 221 227 232 232 236 242 244 250 252 247 247 245 248 251 253 249 246 249 259 258 261 253 254 255 254 257 257